Showing default

COSMOS 2452, 35499

Orbit data source: Space-Track

COSMOS 2452, 35499 is a payload satellite owned by KVR (CIS) in LEO that was launched on Mon, 06 Jul 2009 UTC via an ROKOT launch vehicle from the Plesetsk Missile And Space Complex (PKMTR). Payload-class satellites include a variety of spacecraft equipped with specific instruments for various scientific and technological missions. These include communications satellites like Starlink; space stations such as the ISS; scientific satellites like the Hubble; Earth observation satellites from companies like Planet Labs, Umbra, and HawkEye 360; GPS; miniature CubeSats for education and research; and military/defense satellites.

Loading next visibility...
Identifier
35499, 2009-036B
Orbit
LEO
Country
Flag of CISCIS
Related business
Manufacturer
Resehetnev ISS
Mission
Non-operational Defense Communications
Bus & Motor
STRELA-3M, Unknown motor
Mass
280 kg wet, 280 kg dry
Launch date (UTC)
2009-07-06 (17 years ago)
Launch vehicle
ROKOT
Launch site
Plesetsk Missile And Space Complex (PKMTR)
Object type
Payload
Rocket body
Debris
Shape & HBR
Cyl + 1 Ant, 3.5 m
Radar Cross Section
1.583 m², Large (>1 m²)

Expand to show TLE details & history
Last TLE update: 20 hours ago

TLE from 20 hours ago
0 COSMOS 2452
1 35499U 09036B   26127.45959863  .00000020  00000-0  74474-4 0  9997
2 35499  82.4866 104.9552 0014769 224.6653 135.3238 12.43008272763715
Epoch: 2026-05-07T11:01Z
TLE epoch observation values (Epoch: 2026-05-07T11:01:49.321Z)
Latitude
-0.00001°
Longitude
74.19426°
Altitude
1,504.853 km
Speed
7.108 km/s
True Right ascension
06h 59m 49s
True Declination
0° 00' 00"
Sunlit
Object was in daylight at epoch
Visualization orbit readout
Latitude
Unknown
Longitude
Unknown
Altitude
Unknown
Speed
Unknown
Apparent Right ascension
Unknown
Apparent Declination
Unknown
Sunlit
N/A
Visualization observer readout
Local Sidereal Time
15:25:04
Azimuth
Unknown
Elevation
Unknown
Doppler factor
Unknown
Orbital elements
Apogee altitude
1,502.85 km
Perigee altitude
1,479.606 km
Semi-major axis
7,869.365 km
Eccentricity
0.00148
Inclination
82.4866°
RAAN
104.9552°
Arg. of periapsis
224.6653°
True anomaly
135.44264°
Mean anomaly
135.3238°
Eccentric anomaly
135.38323°
Mean motion
3.10909 °/min
Orbital period
115.79 mins
BSTAR
0.000074474
Loading maneuver chart data...
Computing Atmospheric mass density...
Loading historical data...
Loading historical data...
Loading historical data...
Loading historical data...
Loading historical data...
Loading historical data...
Loading historical data...
Other satellites on launch #36 in the year 2009 (2009-07-06 UTC)

Documentation

Showing up to 5 results
|